CST,Max TemperatureF,Mean TemperatureF,Min TemperatureF,Max Dew PointF,MeanDew PointF,Min DewpointF,Max Humidity, Mean Humidity, Min Humidity, Max Sea Level PressureIn, Mean Sea Level PressureIn, Min Sea Level PressureIn, Max VisibilityMiles, Mean VisibilityMiles, Min VisibilityMiles, Max Wind SpeedMPH, Mean Wind SpeedMPH, Max Gust SpeedMPH,PrecipitationIn, CloudCover, Events, WindDirDegrees
2013-1-1,12,1,-8,6,-3,-11,87,76,59,30.30,30.21,30.06,10,10,10,9,7,,0.00,3,,277
2013-1-2,19,14,8,12,9,6,92,78,65,30.12,30.05,29.96,10,9,7,9,6,,0.00,7,,207
2013-1-3,19,13,7,17,12,2,93,83,73,30.21,30.11,29.98,10,5,2,14,10,20,0.00,7,Snow,285
2013-1-4,28,17,6,16,10,3,92,79,61,30.19,30.09,29.98,10,10,6,12,9,,0.00,0,,257
2013-1-5,32,19,6,21,13,3,92,79,59,30.17,30.00,29.86,10,7,1,14,3,24,0.00,2,,236
2013-1-6,25,18,7,19,15,4,93,84,74,30.25,30.09,29.90,10,8,2,16,10,,0.00,5,Snow,291
2013-1-7,35,22,10,23,17,6,88,76,59,30.20,30.03,29.95,10,10,7,20,10,28,0.00,0,,218
2013-1-8,36,26,15,28,20,11,100,84,67,30.07,29.97,29.80,10,5,0,16,5,23,0.00,3,Fog,166
2013-1-9,35,27,19,27,22,15,86,73,57,30.43,30.17,29.87,10,10,8,21,13,29,0.00,2,,265
2013-1-10,34,26,17,33,23,14,96,81,56,30.47,30.20,29.86,10,8,2,18,8,24,0.16,4,Rain,124
2013-1-11,41,37,33,41,35,33,100,99,93,29.82,29.64,29.47,6,1,0,14,7,,0.00,8,Fog-Rain,148
2013-1-12,44,28,12,40,22,5,100,80,68,30.04,29.74,29.46,10,8,1,23,13,38,0.00,7,Snow,243
2013-1-13,12,8,3,5,2,-2,80,73,67,30.24,30.06,29.94,10,8,2,16,10,23,0.00,6,Snow,292
2013-1-14,15,8,1,7,3,-2,88,78,68,30.43,30.38,30.28,10,9,2,14,8,18,0.00,3,Snow,263
2013-1-15,28,16,3,14,9,0,88,72,53,30.40,30.23,29.96,10,9,7,14,7,24,0.00,1,,208
2013-1-16,30,23,15,27,17,2,86,75,56,30.15,29.82,29.65,10,9,2,17,13,22,0.00,5,Snow,271
2013-1-17,16,12,7,6,2,-3,84,66,51,30.41,30.34,30.18,10,10,10,15,10,21,0.00,4,,305
2013-1-18,41,24,8,29,15,4,92,81,60,30.39,30.05,29.78,10,6,1,15,8,21,0.01,5,Snow,182
2013-1-19,39,22,5,31,20,-6,92,75,58,29.99,29.73,29.58,10,9,2,32,13,52,0.00,5,Snow,272
2013-1-20,8,4,0,-2,-6,-8,85,68,53,30.34,30.20,29.97,10,9,2,28,17,41,0.00,4,Snow,305
2013-1-21,1,-4,-11,-4,-14,-18,78,68,56,30.32,30.17,30.08,10,7,1,22,14,29,0.00,6,Snow,303
2013-1-22,0,-6,-13,-10,-15,-19,80,68,54,30.40,30.35,30.31,10,10,10,14,8,,0.00,0,,288
2013-1-23,12,4,-4,7,0,-11,79,73,61,30.53,30.15,30.01,10,5,0,26,10,32,0.00,7,Snow,306
2013-1-24,9,0,-7,1,-7,-12,79,68,55,30.70,30.57,30.35,10,10,10,14,8,,0.00,3,,103
2013-1-25,18,10,3,12,9,0,92,81,71,30.30,30.01,29.86,10,4,1,17,10,21,0.00,7,Snow,253
2013-1-26,19,8,-2,11,3,-7,88,73,62,30.42,30.34,30.21,10,10,8,13,7,,0.00,3,,180
2013-1-27,28,24,19,28,22,11,100,84,63,30.29,30.02,29.81,10,4,0,16,11,22,0.10,8,Fog-Rain-Snow,134
2013-1-28,30,29,28,30,28,27,100,94,85,29.94,29.85,29.72,9,4,2,15,6,,0.02,8,Rain-Snow,137
2013-1-29,37,34,30,37,32,28,100,95,81,29.72,29.58,29.51,10,4,0,20,11,24,0.32,8,Fog-Rain,56
2013-1-30,32,21,10,27,17,3,93,83,73,29.63,29.48,29.39,10,4,0,24,14,31,0.02,8,Fog-Snow,336
2013-1-31,10,5,-4,3,-2,-9,85,73,66,30.15,29.81,29.56,10,8,2,20,16,26,0.00,7,Snow,299